02-03-2022, 00:00:00,     55,    0.0,    4.6,   0.00,   0.00, 1019.3,   98.7, -999.0
02-03-2022, 00:00:10,     79,    0.8,    4.6,   0.00,   0.00, 1019.3,   98.9, -999.0
02-03-2022, 00:00:21,     77,    0.0,    4.7,   0.00,   0.00, 1019.2,   98.7, -999.0
02-03-2022, 00:00:30,     70,    1.4,    4.8,   0.00,   0.00, 1019.3,   99.0, -999.0
02-03-2022, 00:00:40,     70,    0.4,    4.7,   0.00,   0.01, 1019.3,   98.9, -999.0
02-03-2022, 00:00:50,     70,    0.3,    4.7,   0.00,   0.00, 1019.4,   99.1, -999.0
02-03-2022, 00:01:00,     70,    0.2,    4.6,   0.00,   0.00, 1019.3,   98.9, -999.0
02-03-2022, 00:01:10,     70,    0.2,    4.7,   0.00,   0.00, 1019.3,   98.9, -999.0
02-03-2022, 00:01:20,     70,    0.0,    4.7,   0.00,   0.01, 1019.3,   98.9, -999.0
02-03-2022, 00:01:30,     70,    0.0,    4.5,   0.00,   0.00, 1019.2,   98.8, -999.0
02-03-2022, 00:01:40,     70,    0.0,    4.6,   0.00,   0.00, 1019.2,   98.7, -999.0
02-03-2022, 00:01:50,     70,    0.0,    4.6,   0.00,   0.00, 1019.2,   98.7, -999.0
02-03-2022, 00:02:00,     70,    0.0,    4.6,   0.00,   0.00, 1019.2,   98.7, -999.0
02-03-2022, 00:02:09,     70,    0.1,    4.6,   0.00,   0.00, 1019.2,   98.8, -999.0
02-03-2022, 00:02:20,     70,    0.4,    4.7,   0.00,   0.01, 1019.3,   99.0, -999.0
02-03-2022, 00:02:30,     70,    0.7,    4.6,   0.00,   0.00, 1019.4,   99.1, -999.0
02-03-2022, 00:02:39,     69,    0.2,    4.6,   0.00,   0.00, 1019.3,   98.9, -999.0
02-03-2022, 00:02:50,     70,    0.0,    4.5,   0.00,   0.00, 1019.2,   98.7, -999.0
02-03-2022, 00:03:00,     70,    0.0,    4.5,   0.00,   0.01, 1019.2,   98.7, -999.0
02-03-2022, 00:03:09,     61,    0.2,    4.6,   0.00,   0.00, 1019.2,   98.7, -999.0
02-03-2022, 00:03:19,     61,    0.7,    4.7,   0.00,   0.00, 1019.4,   99.1, -999.0
02-03-2022, 00:03:29,     23,    2.5,    4.6,   0.00,   0.00, 1019.3,   99.0, -999.0
02-03-2022, 00:03:39,     34,    1.2,    4.6,   0.00,   0.01, 1019.3,   99.1, -999.0
02-03-2022, 00:03:49,     39,    0.5,    4.6,   0.00,   0.00, 1019.3,   99.0, -999.0
02-03-2022, 00:03:59,     39,    0.2,    4.5,   0.00,   0.00, 1019.2,   98.9, -999.0
02-03-2022, 00:04:09,     41,    1.5,    4.6,   0.00,   0.00, 1019.3,   99.2, -999.0
02-03-2022, 00:04:19,     57,    1.0,    4.6,   0.00,   0.00, 1019.3,   99.1, -999.0
02-03-2022, 00:04:29,     68,    1.8,    4.6,   0.00,   0.01, 1019.3,   99.0, -999.0
02-03-2022, 00:04:39,     71,    0.7,    4.6,   0.00,   0.00, 1019.3,   99.0, -999.0
02-03-2022, 00:04:49,     37,    1.6,    4.6,   0.00,   0.00, 1019.3,   99.1, -999.0
02-03-2022, 00:04:59,     33,    0.7,    4.6,   0.00,   0.01, 1019.3,   99.0, -999.0
02-03-2022, 00:05:09,     33,    0.1,    4.5,   0.00,   0.00, 1019.2,   98.9, -999.0
02-03-2022, 00:05:19,     33,    0.1,    4.7,   0.00,   0.00, 1019.2,   99.0, -999.0
02-03-2022, 00:05:29,     34,    0.2,    4.6,   0.00,   0.00, 1019.2,   98.9, -999.0
02-03-2022, 00:05:39,     34,    0.5,    4.5,   0.00,   0.01, 1019.2,   99.0, -999.0
02-03-2022, 00:05:48,     34,    0.0,    4.5,   0.00,   0.00, 1019.2,   98.8, -999.0
02-03-2022, 00:05:59,     88,    1.1,    4.6,   0.00,   0.00, 1019.2,   99.0, -999.0
02-03-2022, 00:06:09,     88,    0.6,    4.7,   0.00,   0.01, 1019.3,   99.0, -999.0
02-03-2022, 00:06:18,     77,    0.9,    4.7,   0.00,   0.00, 1019.3,   99.0, -999.0
02-03-2022, 00:06:29,     78,    1.2,    4.6,   0.00,   0.00, 1019.2,   99.1, -999.0
02-03-2022, 00:06:38,     67,    1.3,    4.7,   0.00,   0.00, 1019.3,   99.1, -999.0
02-03-2022, 00:06:48,     77,    0.9,    4.6,   0.00,   0.01, 1019.3,   99.0, -999.0
02-03-2022, 00:06:58,     77,    0.2,    4.6,   0.00,   0.00, 1019.2,   98.9, -999.0
02-03-2022, 00:07:08,    104,    1.3,    4.6,   0.00,   0.00, 1019.2,   99.0, -999.0
02-03-2022, 00:07:18,    104,    0.9,    4.6,   0.00,   0.01, 1019.2,   99.1, -999.0
02-03-2022, 00:07:28,     48,    1.0,    4.8,   0.00,   0.00, 1019.2,   99.1, -999.0
02-03-2022, 00:07:38,     85,    2.7,    4.7,   0.00,   0.00, 1019.2,   99.1, -999.0
02-03-2022, 00:07:48,     41,    1.6,    4.5,   0.00,   0.01, 1019.2,   99.1, -999.0
02-03-2022, 00:07:58,     42,    0.7,    4.6,   0.00,   0.00, 1019.2,   99.0, -999.0
02-03-2022, 00:08:08,     57,    1.1,    4.6,   0.00,   0.00, 1019.2,   99.0, -999.0
02-03-2022, 00:08:18,     58,    1.1,    4.6,   0.00,   0.01, 1019.2,   99.1, -999.0
02-03-2022, 00:08:28,     93,    2.1,    4.6,   0.00,   0.00, 1019.2,   99.0, -999.0
02-03-2022, 00:08:38,     93,    0.7,    4.7,   0.00,   0.01, 1019.2,   99.0, -999.0
02-03-2022, 00:08:48,     92,    0.2,    4.7,   0.00,   0.00, 1019.1,   98.8, -999.0
02-03-2022, 00:08:58,     92,    0.7,    4.7,   0.00,   0.00, 1019.2,   99.0, -999.0
02-03-2022, 00:09:08,     92,    0.3,    4.6,   0.00,   0.01, 1019.1,   99.0, -999.0
02-03-2022, 00:09:18,     92,    0.2,    4.5,   0.00,   0.00, 1019.1,   98.9, -999.0
02-03-2022, 00:09:27,     55,    1.8,    4.6,   0.00,   0.00, 1019.2,   99.1, -999.0
02-03-2022, 00:09:38,     15,    2.4,    4.5,   0.00,   0.00, 1019.2,   99.1, -999.0
02-03-2022, 00:09:47,     14,    0.3,    4.7,   0.00,   0.01, 1019.1,   98.9, -999.0
02-03-2022, 00:09:57,     14,    0.0,    4.5,   0.00,   0.00, 1019.1,   98.8, -999.0
02-03-2022, 00:10:07,     14,    0.0,    4.7,   0.00,   0.00, 1019.1,   98.7, -999.0
02-03-2022, 00:10:17,     57,    0.5,    4.7,   0.00,   0.00, 1019.1,   99.0, -999.0
02-03-2022, 00:10:27,     65,    0.0,    4.7,   0.00,   0.01, 1019.0,   98.6, -999.0
02-03-2022, 00:10:37,     66,    0.4,    4.9,   0.00,   0.00, 1019.1,   98.9, -999.0
02-03-2022, 00:10:47,     66,    0.2,    4.6,   0.00,   0.00, 1019.1,   98.9, -999.0
02-03-2022, 00:10:57,     85,    1.0,    4.7,   0.00,   0.00, 1019.1,   99.0, -999.0
02-03-2022, 00:11:07,     85,    0.0,    4.7,   0.00,   0.01, 1019.1,   98.8, -999.0
02-03-2022, 00:11:17,     85,    0.0,    4.8,   0.00,   0.00, 1019.1,   98.8, -999.0
02-03-2022, 00:11:27,     85,    0.6,    4.7,   0.00,   0.00, 1019.2,   99.0, -999.0
02-03-2022, 00:11:37,     85,    0.3,    4.7,   0.00,   0.00, 1019.2,   99.0, -999.0
02-03-2022, 00:11:47,     85,    0.0,    4.6,   0.00,   0.00, 1019.0,   98.7, -999.0
02-03-2022, 00:11:57,     85,    0.0,    4.6,   0.00,   0.01, 1019.0,   98.8, -999.0
02-03-2022, 00:12:07,     85,    0.0,    4.5,   0.00,   0.00, 1019.0,   98.7, -999.0
02-03-2022, 00:12:17,     85,    0.0,    4.6,   0.00,   0.00, 1019.0,   98.7, -999.0
02-03-2022, 00:12:27,     48,    0.8,    4.6,   0.00,   0.00, 1019.2,   99.0, -999.0
02-03-2022, 00:12:36,     43,    1.4,    4.6,   0.00,   0.01, 1019.2,   99.1, -999.0
02-03-2022, 00:12:47,     43,    0.3,    4.6,   0.00,   0.00, 1019.1,   99.0, -999.0
02-03-2022, 00:12:56,     91,    0.6,    4.6,   0.00,   0.00, 1019.1,   98.9, -999.0
02-03-2022, 00:13:06,     91,    0.6,    4.6,   0.00,   0.00, 1019.1,   99.0, -999.0
02-03-2022, 00:13:17,     91,    0.1,    4.6,   0.00,   0.01, 1019.1,   98.8, -999.0
02-03-2022, 00:13:26,     91,    0.7,    4.6,   0.00,   0.00, 1019.1,   99.2, -999.0
02-03-2022, 00:13:36,     91,    0.9,    4.6,   0.00,   0.00, 1019.2,   99.1, -999.0
02-03-2022, 00:13:46,     49,    1.9,    4.5,   0.00,   0.00, 1019.2,   99.1, -999.0
02-03-2022, 00:13:56,     69,    2.7,    4.6,   0.00,   0.00, 1019.2,   99.1, -999.0
02-03-2022, 00:14:06,     69,    0.8,    4.6,   0.00,   0.01, 1019.2,   99.1, -999.0
02-03-2022, 00:14:16,     69,    0.6,    4.6,   0.00,   0.00, 1019.2,   99.0, -999.0
02-03-2022, 00:14:26,     39,    1.1,    4.6,   0.00,   0.00, 1019.2,   99.1, -999.0
02-03-2022, 00:14:36,     17,    1.4,    4.7,   0.00,   0.00, 1019.1,   99.0, -999.0
02-03-2022, 00:14:46,     22,    0.7,    4.6,   0.00,   0.00, 1019.1,   99.0, -999.0
02-03-2022, 00:14:56,     19,    0.0,    4.6,   0.00,   0.01, 1019.0,   98.9, -999.0
02-03-2022, 00:15:06,     70,    1.3,    4.6,   0.00,   0.00, 1019.1,   99.1, -999.0
02-03-2022, 00:15:16,     70,    0.9,    4.7,   0.00,   0.00, 1019.2,   99.1, -999.0
02-03-2022, 00:15:26,     69,    0.4,    4.6,   0.00,   0.00, 1019.1,   99.0, -999.0
02-03-2022, 00:15:36,     69,    0.5,    4.6,   0.00,   0.00, 1019.2,   99.0, -999.0
02-03-2022, 00:15:46,     38,    2.2,    4.6,   0.00,   0.00, 1019.1,   99.1, -999.0
02-03-2022, 00:15:56,     83,    3.1,    4.6,   0.00,   0.01, 1019.1,   99.1, -999.0
02-03-2022, 00:16:05,     82,    0.8,    4.6,   0.00,   0.00, 1019.2,   99.1, -999.0
02-03-2022, 00:16:15,      3,    1.2,    4.7,   0.00,   0.00, 1019.1,   99.0, -999.0
02-03-2022, 00:16:26,     66,    1.6,    4.6,   0.00,   0.00, 1019.1,   99.1, -999.0
02-03-2022, 00:16:35,     86,    1.7,    4.6,   0.00,   0.00, 1019.2,   99.1, -999.0
02-03-2022, 00:16:45,     83,    0.7,    4.6,   0.00,   0.01, 1019.1,   98.9, -999.0
02-03-2022, 00:16:55,     84,    0.0,    4.6,   0.00,   0.00, 1019.0,   98.6, -999.0
02-03-2022, 00:17:05,     84,    0.2,    4.6,   0.00,   0.00, 1019.0,   98.8, -999.0
02-03-2022, 00:17:15,     84,    0.6,    4.7,   0.00,   0.00, 1019.1,   99.1, -999.0
02-03-2022, 00:17:25,     84,    0.6,    4.7,   0.00,   0.00, 1019.1,   99.0, -999.0
02-03-2022, 00:17:35,     84,    0.9,    4.7,   0.00,   0.00, 1019.1,   99.0, -999.0
02-03-2022, 00:17:45,     84,    0.3,    4.7,   0.00,   0.01, 1019.1,   98.9, -999.0
02-03-2022, 00:17:55,     84,    0.9,    4.8,   0.00,   0.00, 1019.2,   99.1, -999.0
02-03-2022, 00:18:05,     84,    0.2,    4.6,   0.00,   0.00, 1019.1,   98.8, -999.0
02-03-2022, 00:18:15,     83,    0.7,    4.7,   0.00,   0.00, 1019.1,   99.1, -999.0
02-03-2022, 00:18:25,     77,    0.8,    4.6,   0.00,   0.00, 1019.1,   98.9, -999.0
02-03-2022, 00:18:35,    116,    0.4,    4.6,   0.00,   0.00, 1019.1,   98.8, -999.0
02-03-2022, 00:18:45,    116,    0.1,    4.6,   0.00,   0.01, 1019.1,   98.8, -999.0
02-03-2022, 00:18:55,    115,    0.2,    4.6,   0.00,   0.00, 1019.1,   98.9, -999.0
02-03-2022, 00:19:05,    110,    0.9,    4.7,   0.00,   0.00, 1019.2,   99.1, -999.0
02-03-2022, 00:19:15,     50,    1.0,    4.7,   0.00,   0.00, 1019.1,   99.0, -999.0
02-03-2022, 00:19:24,     59,    1.4,    4.7,   0.00,   0.00, 1019.1,   99.1, -999.0
02-03-2022, 00:19:35,     59,    0.6,    4.6,   0.00,   0.01, 1019.1,   99.1, -999.0
02-03-2022, 00:19:44,     60,    0.4,    4.6,   0.00,   0.00, 1019.2,   99.0, -999.0
02-03-2022, 00:19:54,     59,    0.2,    4.7,   0.00,   0.00, 1019.1,   98.9, -999.0
02-03-2022, 00:20:05,     60,    0.5,    4.6,   0.00,   0.00, 1019.1,   99.0, -999.0
02-03-2022, 00:20:14,     93,    2.5,    4.6,   0.00,   0.00, 1019.1,   99.1, -999.0
02-03-2022, 00:20:24,     39,    2.1,    4.6,   0.00,   0.00, 1019.1,   99.2, -999.0
02-03-2022, 00:20:34,     75,    1.3,    4.6,   0.00,   0.01, 1019.1,   99.1, -999.0
02-03-2022, 00:20:44,     91,    1.4,    4.6,   0.00,   0.00, 1019.1,   99.1, -999.0
02-03-2022, 00:20:54,    110,    1.2,    4.7,   0.00,   0.00, 1019.1,   99.0, -999.0
02-03-2022, 00:21:04,    109,    0.1,    4.7,   0.00,   0.00, 1019.0,   98.8, -999.0
02-03-2022, 00:21:14,    110,    0.0,    4.8,   0.00,   0.00, 1019.0,   98.8, -999.0
02-03-2022, 00:21:24,     49,    0.6,    4.9,   0.00,   0.00, 1019.0,   99.0, -999.0
02-03-2022, 00:21:34,     49,    1.4,    4.9,   0.00,   0.00, 1019.1,   99.1, -999.0
02-03-2022, 00:21:44,     49,    1.6,    4.8,   0.00,   0.01, 1019.1,   99.1, -999.0
02-03-2022, 00:21:54,     48,    0.8,    4.7,   0.00,   0.00, 1019.1,   98.9, -999.0
02-03-2022, 00:22:04,     45,    1.4,    4.8,   0.00,   0.00, 1019.1,   99.1, -999.0
02-03-2022, 00:22:14,     63,    1.5,    4.7,   0.00,   0.00, 1019.1,   99.1, -999.0
02-03-2022, 00:22:24,     78,    1.4,    4.7,   0.00,   0.00, 1019.1,   99.1, -999.0
02-03-2022, 00:22:34,     76,    1.1,    4.8,   0.00,   0.00, 1019.1,   99.0, -999.0
02-03-2022, 00:22:44,     77,    0.7,    4.7,   0.00,   0.00, 1019.1,   99.1, -999.0
02-03-2022, 00:22:53,     77,    0.6,    4.6,   0.00,   0.00, 1019.1,   99.0, -999.0
02-03-2022, 00:23:03,     38,    1.2,    4.8,   0.00,   0.01, 1019.1,   99.1, -999.0
02-03-2022, 00:23:14,     38,    1.0,    4.7,   0.00,   0.00, 1019.1,   99.1, -999.0
02-03-2022, 00:23:23,     40,    1.4,    4.7,   0.00,   0.00, 1019.1,   99.1, -999.0
02-03-2022, 00:23:33,     63,    1.1,    4.7,   0.00,   0.00, 1019.1,   99.1, -999.0
02-03-2022, 00:23:43,     73,    0.0,    4.6,   0.00,   0.00, 1019.0,   98.9, -999.0
02-03-2022, 00:23:53,     87,    1.6,    4.7,   0.00,   0.00, 1019.1,   99.1, -999.0
02-03-2022, 00:24:03,     87,    0.0,    4.7,   0.00,   0.00, 1019.0,   98.8, -999.0
02-03-2022, 00:24:13,     87,    0.8,    4.8,   0.00,   0.00, 1019.1,   98.9, -999.0
02-03-2022, 00:24:23,     86,    1.2,    4.8,   0.00,   0.00, 1019.1,   99.0, -999.0
02-03-2022, 00:24:33,     51,    1.5,    4.5,   0.00,   0.00, 1019.1,   99.0, -999.0
02-03-2022, 00:24:43,     51,    1.1,    4.6,   0.00,   0.01, 1019.1,   99.1, -999.0
02-03-2022, 00:24:53,     53,    0.5,    4.6,   0.00,   0.00, 1019.1,   99.0, -999.0
02-03-2022, 00:25:03,     52,    0.7,    4.7,   0.00,   0.00, 1019.1,   99.0, -999.0
02-03-2022, 00:25:13,     63,    0.8,    4.7,   0.00,   0.00, 1019.1,   98.9, -999.0
02-03-2022, 00:25:23,     55,    2.2,    4.8,   0.00,   0.00, 1019.1,   99.0, -999.0
02-03-2022, 00:25:33,     35,    1.8,    4.7,   0.00,   0.00, 1019.1,   99.1, -999.0
02-03-2022, 00:25:43,     45,    1.1,    4.7,   0.00,   0.00, 1019.1,   99.0, -999.0
02-03-2022, 00:25:53,     45,    0.3,    4.7,   0.00,   0.00, 1019.1,   98.9, -999.0
02-03-2022, 00:26:02,     54,    1.2,    4.7,   0.00,   0.00, 1019.1,   99.0, -999.0
02-03-2022, 00:26:13,     54,    1.0,    4.7,   0.00,   0.00, 1019.1,   99.1, -999.0
02-03-2022, 00:26:23,     54,    1.2,    4.7,   0.00,   0.00, 1019.1,   99.1, -999.0
02-03-2022, 00:26:32,     54,    1.4,    4.7,   0.00,   0.00, 1019.1,   99.1, -999.0
02-03-2022, 00:26:43,     54,    0.5,    4.6,   0.00,   0.00, 1019.1,   99.1, -999.0
02-03-2022, 00:26:53,     23,    2.0,    4.6,   0.00,   0.00, 1019.1,   99.1, -999.0
02-03-2022, 00:27:02,     49,    2.4,    4.6,   0.00,   0.01, 1019.1,   99.1, -999.0
02-03-2022, 00:27:12,     49,    1.7,    4.6,   0.00,   0.00, 1019.1,   99.1, -999.0
02-03-2022, 00:27:22,     43,    2.3,    4.5,   0.00,   0.00, 1019.1,   99.0, -999.0
02-03-2022, 00:27:32,     43,    1.0,    4.6,   0.00,   0.00, 1019.1,   99.1, -999.0
02-03-2022, 00:27:42,     50,    0.9,    4.6,   0.00,   0.00, 1019.1,   99.0, -999.0
02-03-2022, 00:27:52,     51,    1.7,    4.6,   0.00,   0.00, 1019.1,   99.1, -999.0
02-03-2022, 00:28:02,     69,    1.7,    4.6,   0.00,   0.00, 1019.1,   99.1, -999.0
02-03-2022, 00:28:12,     70,    0.8,    4.6,   0.00,   0.00, 1019.1,   99.1, -999.0
02-03-2022, 00:28:22,     70,    0.7,    4.6,   0.00,   0.00, 1019.1,   99.1, -999.0
02-03-2022, 00:28:32,     68,    1.6,    4.6,   0.00,   0.00, 1019.2,   99.1, -999.0
02-03-2022, 00:28:42,     67,    1.2,    4.5,   0.00,   0.00, 1019.1,   99.1, -999.0
02-03-2022, 00:28:52,     70,    0.7,    4.4,   0.00,   0.00, 1019.1,   99.0, -999.0
02-03-2022, 00:29:02,     71,    0.5,    4.5,   0.00,   0.00, 1019.1,   99.0, -999.0
02-03-2022, 00:29:11,     88,    1.1,    4.6,   0.00,   0.00, 1019.1,   99.1, -999.0
02-03-2022, 00:29:22,     88,    0.2,    4.6,   0.00,   0.00, 1019.0,   98.9, -999.0
02-03-2022, 00:29:32,     88,    0.0,    4.7,   0.00,   0.00, 1018.9,   98.7, -999.0
02-03-2022, 00:29:41,     89,    0.0,    4.6,   0.00,   0.00, 1019.0,   98.7, -999.0
02-03-2022, 00:29:51,     87,    0.6,    4.8,   0.00,   0.00, 1019.1,   99.0, -999.0
02-03-2022, 00:30:02,     87,    0.5,    4.8,   0.00,   0.00, 1019.1,   99.0, -999.0
02-03-2022, 00:30:11,     87,    0.6,    4.8,   0.00,   0.00, 1019.1,   99.1, -999.0
02-03-2022, 00:30:21,     87,    0.3,    4.7,   0.00,   0.00, 1019.1,   99.0, -999.0
02-03-2022, 00:30:31,     87,    0.2,    4.7,   0.00,   0.00, 1019.0,   99.0, -999.0
02-03-2022, 00:30:41,     87,    0.0,    4.7,   0.00,   0.00, 1018.9,   98.8, -999.0
02-03-2022, 00:30:51,     87,    0.0,    4.7,   0.00,   0.01, 1018.9,   98.7, -999.0
02-03-2022, 00:31:01,     87,    0.0,    4.7,   0.00,   0.00, 1018.9,   98.8, -999.0
02-03-2022, 00:31:11,     88,    0.0,    4.7,   0.00,   0.00, 1019.0,   98.8, -999.0
02-03-2022, 00:31:21,     87,    0.0,    4.8,   0.00,   0.00, 1018.9,   98.7, -999.0
02-03-2022, 00:31:31,     87,    0.0,    4.7,   0.00,   0.00, 1018.9,   98.8, -999.0
02-03-2022, 00:31:41,     87,    0.0,    4.7,   0.00,   0.00, 1018.9,   98.7, -999.0
02-03-2022, 00:31:51,     87,    0.0,    4.8,   0.00,   0.00, 1018.9,   98.7, -999.0
02-03-2022, 00:32:01,     84,    0.0,    4.7,   0.00,   0.00, 1018.9,   98.7, -999.0
02-03-2022, 00:32:11,     87,    0.3,    4.7,   0.00,   0.00, 1019.0,   98.9, -999.0
02-03-2022, 00:32:21,     87,    0.7,    4.7,   0.00,   0.00, 1019.1,   99.1, -999.0
02-03-2022, 00:32:31,     49,    0.9,    4.7,   0.00,   0.00, 1019.0,   99.0, -999.0
02-03-2022, 00:32:41,     55,    0.9,    4.7,   0.00,   0.00, 1019.0,   99.0, -999.0
02-03-2022, 00:32:50,    111,    2.5,    4.7,   0.00,   0.00, 1019.0,   99.1, -999.0
02-03-2022, 00:33:01,     32,    1.2,    4.8,   0.00,   0.00, 1019.0,   99.0, -999.0
02-03-2022, 00:33:11,     34,    0.4,    4.8,   0.00,   0.00, 1019.0,   98.9, -999.0
02-03-2022, 00:33:20,     33,    0.0,    4.7,   0.00,   0.00, 1018.9,   98.8, -999.0
02-03-2022, 00:33:30,     33,    0.0,    4.7,   0.00,   0.00, 1018.9,   98.8, -999.0
02-03-2022, 00:33:41,     54,    0.9,    4.7,   0.00,   0.00, 1019.0,   98.9, -999.0
02-03-2022, 00:33:50,     54,    1.4,    4.8,   0.00,   0.00, 1019.0,   99.2, -999.0
02-03-2022, 00:34:00,     54,    0.2,    4.7,   0.00,   0.00, 1019.0,   98.9, -999.0
02-03-2022, 00:34:10,     54,    0.0,    4.7,   0.00,   0.00, 1018.9,   98.8, -999.0
02-03-2022, 00:34:20,     55,    0.3,    4.8,   0.00,   0.00, 1018.9,   98.8, -999.0
02-03-2022, 00:34:30,     54,    0.1,    4.9,   0.00,   0.00, 1018.9,   98.9, -999.0
02-03-2022, 00:34:40,     57,    0.2,    4.7,   0.00,   0.00, 1019.0,   98.9, -999.0
02-03-2022, 00:34:50,     57,    0.2,    4.7,   0.00,   0.00, 1018.9,   98.9, -999.0
02-03-2022, 00:35:00,     57,    1.1,    4.7,   0.00,   0.00, 1019.0,   99.0, -999.0
02-03-2022, 00:35:10,     58,    1.4,    4.6,   0.00,   0.01, 1019.0,   99.0, -999.0
02-03-2022, 00:35:20,     57,    0.3,    4.6,   0.00,   0.00, 1018.9,   98.9, -999.0
02-03-2022, 00:35:30,     39,    1.2,    4.6,   0.00,   0.00, 1019.0,   99.0, -999.0
02-03-2022, 00:35:40,     39,    2.1,    4.5,   0.00,   0.00, 1019.0,   99.1, -999.0
02-03-2022, 00:35:50,     39,    0.6,    4.6,   0.00,   0.00, 1019.0,   99.1, -999.0
02-03-2022, 00:35:59,     40,    0.1,    4.6,   0.00,   0.00, 1018.9,   98.9, -999.0
02-03-2022, 00:36:10,     39,    0.1,    4.6,   0.00,   0.00, 1018.9,   98.8, -999.0
02-03-2022, 00:36:20,     39,    0.1,    4.6,   0.00,   0.00, 1018.9,   98.9, -999.0
02-03-2022, 00:36:29,     40,    0.7,    4.7,   0.00,   0.00, 1019.0,   99.0, -999.0
02-03-2022, 00:36:39,     40,    1.0,    4.7,   0.00,   0.00, 1019.0,   99.1, -999.0
02-03-2022, 00:36:50,     40,    0.2,    4.6,   0.00,   0.00, 1019.0,   99.0, -999.0
02-03-2022, 00:36:59,     40,    0.0,    4.5,   0.00,   0.00, 1018.9,   98.7, -999.0
02-03-2022, 00:37:09,     40,    0.0,    4.5,   0.00,   0.00, 1018.9,   98.7, -999.0
02-03-2022, 00:37:20,     40,    0.0,    4.5,   0.00,   0.00, 1018.8,   98.6, -999.0
02-03-2022, 00:37:29,     40,    0.1,    4.5,   0.00,   0.00, 1018.9,   98.7, -999.0
02-03-2022, 00:37:39,     40,    0.0,    4.6,   0.00,   0.01, 1018.9,   98.7, -999.0
02-03-2022, 00:37:49,     40,    0.0,    4.6,   0.00,   0.00, 1018.8,   98.7, -999.0
02-03-2022, 00:37:59,     40,    0.0,    4.6,   0.00,   0.00, 1018.9,   98.7, -999.0
02-03-2022, 00:38:09,     40,    0.0,    4.6,   0.00,   0.00, 1018.8,   98.7, -999.0
02-03-2022, 00:38:19,     41,    0.0,    4.6,   0.00,   0.00, 1018.9,   98.7, -999.0
02-03-2022, 00:38:29,     40,    0.0,    4.6,   0.00,   0.00, 1018.9,   98.7, -999.0
02-03-2022, 00:38:39,     41,    0.3,    4.6,   0.00,   0.00, 1018.9,   98.8, -999.0
02-03-2022, 00:38:49,     40,    0.6,    4.7,   0.00,   0.00, 1019.0,   99.1, -999.0
02-03-2022, 00:38:59,     41,    0.6,    4.7,   0.00,   0.00, 1019.0,   99.0, -999.0
02-03-2022, 00:39:08,     40,    0.2,    4.7,   0.00,   0.00, 1018.9,   99.0, -999.0
02-03-2022, 00:39:19,     40,    0.0,    4.5,   0.00,   0.00, 1018.8,   98.7, -999.0
02-03-2022, 00:39:29,     40,    0.0,    4.6,   0.00,   0.00, 1018.9,   98.8, -999.0
02-03-2022, 00:39:38,     40,    0.0,    4.4,   0.00,   0.00, 1018.9,   98.7, -999.0
02-03-2022, 00:39:49,     40,    0.0,    4.4,   0.00,   0.01, 1018.9,   98.7, -999.0
02-03-2022, 00:39:59,     41,    0.4,    4.7,   0.00,   0.00, 1019.0,   99.0, -999.0
02-03-2022, 00:40:08,     89,    1.3,    4.8,   0.00,   0.00, 1019.0,   99.1, -999.0
02-03-2022, 00:40:18,     89,    0.3,    4.7,   0.00,   0.00, 1018.9,   99.0, -999.0
02-03-2022, 00:40:29,     87,    0.8,    4.8,   0.00,   0.00, 1019.0,   99.0, -999.0
02-03-2022, 00:40:38,     87,    0.9,    4.7,   0.00,   0.00, 1019.0,   99.1, -999.0
02-03-2022, 00:40:48,     84,    0.8,    4.7,   0.00,   0.00, 1018.9,   99.0, -999.0
02-03-2022, 00:40:58,     83,    0.1,    4.6,   0.00,   0.00, 1018.9,   98.8, -999.0
02-03-2022, 00:41:08,     83,    0.0,    4.7,   0.00,   0.00, 1018.9,   98.9, -999.0
02-03-2022, 00:41:20,     84,    0.0,    4.7,   0.00,   0.00, 1018.8,   98.8, -999.0
02-03-2022, 00:41:28,     84,    0.0,    4.8,   0.00,   0.00, 1018.9,   98.6, -999.0
02-03-2022, 00:41:38,     84,    0.2,    4.7,   0.00,   0.00, 1018.9,   98.8, -999.0
02-03-2022, 00:41:48,     83,    0.6,    4.8,   0.00,   0.00, 1018.9,   98.9, -999.0
02-03-2022, 00:41:58,     82,    0.2,    4.7,   0.00,   0.00, 1018.9,   99.0, -999.0
02-03-2022, 00:42:08,     82,    0.1,    4.7,   0.00,   0.00, 1018.9,   98.9, -999.0
02-03-2022, 00:42:18,     82,    0.7,    4.7,   0.00,   0.01, 1018.9,   99.0, -999.0
02-03-2022, 00:42:28,     82,    0.2,    4.7,   0.00,   0.00, 1018.9,   98.7, -999.0
02-03-2022, 00:42:38,     96,    0.2,    4.7,   0.00,   0.00, 1018.9,   98.9, -999.0
02-03-2022, 00:42:47,     92,    0.1,    4.7,   0.00,   0.00, 1018.9,   98.8, -999.0
02-03-2022, 00:42:58,     91,    0.2,    4.8,   0.00,   0.00, 1018.9,   98.9, -999.0
02-03-2022, 00:43:08,     91,    0.0,    4.7,   0.00,   0.00, 1018.9,   98.8, -999.0
02-03-2022, 00:43:17,     91,    0.0,    4.6,   0.00,   0.00, 1018.8,   98.7, -999.0
02-03-2022, 00:43:28,     91,    0.0,    4.6,   0.00,   0.00, 1018.8,   98.7, -999.0
02-03-2022, 00:43:38,     91,    0.3,    4.7,   0.00,   0.00, 1018.9,   99.0, -999.0
02-03-2022, 00:43:47,     91,    0.0,    4.6,   0.00,   0.00, 1018.8,   98.6, -999.0
02-03-2022, 00:43:57,     91,    0.0,    4.5,   0.00,   0.00, 1018.8,   98.8, -999.0
02-03-2022, 00:44:07,     91,    0.0,    4.6,   0.00,   0.00, 1018.8,   98.7, -999.0
02-03-2022, 00:44:17,     91,    0.0,    4.6,   0.00,   0.00, 1018.8,   98.7, -999.0
02-03-2022, 00:44:27,     91,    0.1,    4.5,   0.00,   0.00, 1018.9,   98.7, -999.0
02-03-2022, 00:44:37,     91,    0.2,    4.6,   0.00,   0.01, 1018.9,   98.9, -999.0
02-03-2022, 00:44:47,     90,    0.5,    4.6,   0.00,   0.00, 1018.9,   98.9, -999.0
02-03-2022, 00:44:57,     90,    0.1,    4.6,   0.00,   0.00, 1018.9,   98.8, -999.0
02-03-2022, 00:45:07,     91,    0.0,    4.5,   0.00,   0.00, 1018.8,   98.8, -999.0
02-03-2022, 00:45:17,     86,    0.4,    4.5,   0.00,   0.00, 1018.9,   99.0, -999.0
02-03-2022, 00:45:27,     86,    0.6,    4.7,   0.00,   0.00, 1018.9,   99.1, -999.0
02-03-2022, 00:45:37,     86,    0.1,    4.6,   0.00,   0.01, 1018.8,   98.7, -999.0
02-03-2022, 00:45:47,     86,    0.0,    4.6,   0.00,   0.00, 1018.8,   98.7, -999.0
02-03-2022, 00:45:57,     86,    0.0,    4.6,   0.00,   0.00, 1018.8,   98.6, -999.0
02-03-2022, 00:46:07,     86,    0.0,    4.6,   0.00,   0.00, 1018.8,   98.6, -999.0
02-03-2022, 00:46:17,     60,    0.8,    4.6,   0.00,   0.00, 1018.9,   99.1, -999.0
02-03-2022, 00:46:26,     63,    1.0,    4.7,   0.00,   0.00, 1018.9,   99.2, -999.0
02-03-2022, 00:46:37,     56,    0.5,    4.7,   0.00,   0.00, 1018.9,   99.0, -999.0